Time,TemperatureF,DewpointF,PressureIn,WindDirection,WindDirectionDegrees,WindSpeedMPH,WindSpeedGustMPH,Humidity,HourlyPrecipIn,Conditions,Clouds,dailyrainin,SoftwareType,DateUTC
2013-10-30 00:13:00,31.0,28.0,29.88,SSE,163,0.0,0.0,89,0.00,,,0.04,,2013-10-30 06:13:00,
2013-10-30 00:22:00,31.0,28.0,29.88,SSE,163,0.0,0.0,89,0.00,,,0.04,,2013-10-30 06:22:00,
2013-10-30 00:42:00,31.0,28.0,29.87,SSE,163,0.0,0.0,89,0.00,,,0.04,,2013-10-30 06:42:00,
2013-10-30 00:52:00,31.0,28.0,29.86,SSE,163,0.0,0.0,89,0.00,,,0.04,,2013-10-30 06:52:00,
2013-10-30 01:12:00,31.0,28.0,29.86,SSE,163,0.0,0.0,89,0.00,,,0.04,,2013-10-30 07:12:00,
2013-10-30 01:21:00,31.0,28.0,29.86,SSE,163,0.0,0.0,89,0.00,,,0.04,,2013-10-30 07:21:00,
2013-10-30 01:42:00,31.0,28.0,29.85,SSE,163,0.0,0.0,90,0.00,,,0.04,,2013-10-30 07:42:00,
2013-10-30 01:52:00,31.0,28.0,29.85,SSE,163,0.0,0.0,90,0.00,,,0.04,,2013-10-30 07:52:00,
2013-10-30 02:12:00,31.0,28.0,29.85,SSE,163,0.0,0.0,90,0.00,,,0.04,,2013-10-30 08:12:00,
2013-10-30 02:22:00,31.0,28.0,29.84,SSE,163,0.0,0.0,90,0.00,,,0.04,,2013-10-30 08:22:00,
2013-10-30 02:42:00,31.0,28.0,29.84,SSE,163,0.0,0.0,90,0.00,,,0.04,,2013-10-30 08:42:00,
2013-10-30 02:52:00,31.0,28.0,29.83,SSE,163,0.0,0.0,90,0.00,,,0.04,,2013-10-30 08:52:00,
2013-10-30 03:11:00,31.0,28.0,29.82,SSE,163,0.0,0.0,90,0.00,,,0.04,,2013-10-30 09:11:00,
2013-10-30 03:22:00,31.0,28.0,29.82,SSE,163,0.0,0.0,90,0.00,,,0.04,,2013-10-30 09:22:00,
2013-10-30 03:43:00,31.0,29.0,29.81,SSE,163,0.0,0.0,91,0.00,,,0.04,,2013-10-30 09:43:00,
2013-10-30 03:54:00,31.0,29.0,29.82,SSE,163,0.0,0.0,91,0.00,,,0.04,,2013-10-30 09:54:00,
2013-10-30 04:13:00,31.0,29.0,29.82,SSE,163,0.0,0.0,91,0.00,,,0.04,,2013-10-30 10:13:00,
2013-10-30 04:23:00,31.0,29.0,29.81,SSE,163,0.0,0.0,91,0.00,,,0.04,,2013-10-30 10:23:00,
2013-10-30 04:43:00,31.0,28.0,29.80,SSE,163,0.0,0.0,90,0.00,,,0.04,,2013-10-30 10:43:00,
2013-10-30 04:53:00,31.0,28.0,29.80,SSE,163,0.0,0.0,90,0.00,,,0.04,,2013-10-30 10:53:00,
2013-10-30 05:12:00,30.0,28.0,29.80,SSE,163,0.0,0.0,91,0.00,,,0.04,,2013-10-30 11:12:00,
2013-10-30 05:22:00,30.0,28.0,29.80,SSE,163,0.0,0.0,91,0.00,,,0.04,,2013-10-30 11:22:00,
2013-10-30 05:42:00,30.0,28.0,29.80,SSE,163,0.0,0.0,91,0.00,,,0.04,,2013-10-30 11:42:00,
2013-10-30 05:52:00,30.0,28.0,29.80,SSE,163,0.0,0.0,91,0.00,,,0.04,,2013-10-30 11:52:00,
2013-10-30 06:12:00,31.0,29.0,29.80,SSE,163,0.0,0.0,91,0.00,,,0.04,,2013-10-30 12:12:00,
2013-10-30 06:22:00,31.0,29.0,29.80,SSE,163,0.0,0.0,91,0.00,,,0.04,,2013-10-30 12:22:00,
2013-10-30 06:42:00,31.0,29.0,29.79,SSE,163,0.0,6.0,91,0.00,,,0.04,,2013-10-30 12:42:00,
2013-10-30 06:52:00,31.0,29.0,29.79,SSE,163,0.0,6.0,91,0.00,,,0.04,,2013-10-30 12:52:00,
2013-10-30 07:11:00,31.0,29.0,29.78,SSE,163,0.0,5.0,91,0.00,,,0.04,,2013-10-30 13:11:00,
2013-10-30 07:22:00,31.0,29.0,29.78,SSE,163,0.0,0.0,91,0.00,,,0.04,,2013-10-30 13:22:00,
2013-10-30 07:42:00,31.0,29.0,29.77,SSE,163,0.0,0.0,91,0.00,,,0.04,,2013-10-30 13:42:00,
2013-10-30 07:52:00,30.0,28.0,29.77,SSE,163,0.0,0.0,91,0.00,,,0.04,,2013-10-30 13:52:00,
2013-10-30 08:11:00,31.0,29.0,29.76,SSE,163,0.0,0.0,91,0.00,,,0.04,,2013-10-30 14:11:00,
2013-10-30 08:21:00,31.0,29.0,29.76,SSE,163,0.0,0.0,92,0.00,,,0.04,,2013-10-30 14:21:00,
2013-10-30 08:42:00,31.0,29.0,29.76,SSE,163,0.0,0.0,92,0.00,,,0.04,,2013-10-30 14:42:00,
2013-10-30 08:52:00,31.0,29.0,29.76,SSE,163,0.0,0.0,92,0.00,,,0.04,,2013-10-30 14:52:00,
2013-10-30 09:11:00,31.0,29.0,29.76,SSE,163,1.0,5.0,92,0.00,,,0.04,,2013-10-30 15:11:00,
2013-10-30 09:22:00,32.0,30.0,29.76,SSE,163,0.0,5.0,92,0.00,,,0.04,,2013-10-30 15:22:00,
2013-10-30 09:43:00,32.0,30.0,29.75,SSE,163,0.0,0.0,92,0.00,,,0.04,,2013-10-30 15:43:00,
2013-10-30 09:54:00,32.0,30.0,29.75,SSE,163,0.0,0.0,91,0.00,,,0.04,,2013-10-30 15:54:00,
2013-10-30 10:12:00,34.0,32.0,29.74,SSE,163,0.0,1.0,91,0.00,,,0.04,,2013-10-30 16:12:00,
2013-10-30 10:23:00,35.0,32.0,29.74,SSE,163,0.0,0.0,89,0.00,,,0.04,,2013-10-30 16:23:00,
2013-10-30 10:42:00,36.0,32.0,29.74,SSE,163,1.0,6.0,86,0.01,,,0.05,,2013-10-30 16:42:00,
2013-10-30 10:53:00,38.0,34.0,29.74,SSE,163,2.0,5.0,84,0.01,,,0.05,,2013-10-30 16:53:00,
2013-10-30 11:12:00,39.0,34.0,29.73,South,178,2.0,7.0,83,0.02,,,0.06,,2013-10-30 17:12:00,
2013-10-30 11:23:00,39.0,34.0,29.73,South,186,3.0,7.0,81,0.02,,,0.06,,2013-10-30 17:23:00,
2013-10-30 11:33:00,39.0,34.0,29.73,South,186,3.0,7.0,81,0.02,,,0.06,,2013-10-30 17:33:00,
2013-10-30 11:42:00,39.0,34.0,29.73,South,186,3.0,7.0,81,0.02,,,0.06,,2013-10-30 17:42:00,
2013-10-30 11:52:00,41.0,35.0,29.72,SSE,168,5.0,9.0,79,0.02,,,0.07,,2013-10-30 17:52:00,
2013-10-30 12:12:00,42.0,35.0,29.71,SSW,196,5.0,10.0,76,0.01,,,0.07,,2013-10-30 18:12:00,
2013-10-30 12:22:00,42.0,35.0,29.70,SSW,209,6.0,11.0,76,0.02,,,0.08,,2013-10-30 18:22:00,
2013-10-30 12:42:00,43.0,36.0,29.69,South,184,6.0,13.0,75,0.02,,,0.08,,2013-10-30 18:42:00,
2013-10-30 12:52:00,44.0,36.0,29.68,SSW,192,7.0,14.0,73,0.01,,,0.08,,2013-10-30 18:52:00,
2013-10-30 13:11:00,44.0,36.0,29.67,SW,215,7.0,12.0,72,0.01,,,0.08,,2013-10-30 19:11:00,
2013-10-30 13:21:00,45.0,36.0,29.66,South,183,7.0,11.0,71,0.00,,,0.08,,2013-10-30 19:21:00,
2013-10-30 13:42:00,46.0,36.0,29.65,SW,228,5.0,12.0,69,0.00,,,0.08,,2013-10-30 19:42:00,
2013-10-30 13:52:00,46.0,36.0,29.64,SW,235,7.0,11.0,67,0.00,,,0.08,,2013-10-30 19:52:00,
2013-10-30 14:12:00,46.0,36.0,29.63,SW,225,7.0,12.0,67,0.00,,,0.08,,2013-10-30 20:12:00,
2013-10-30 14:22:00,47.0,35.0,29.62,WSW,249,7.0,12.0,64,0.00,,,0.08,,2013-10-30 20:22:00,
2013-10-30 14:42:00,47.0,35.0,29.61,South,183,4.0,11.0,63,0.00,,,0.08,,2013-10-30 20:42:00,
2013-10-30 14:52:00,48.0,35.0,29.60,SW,228,6.0,11.0,61,0.00,,,0.08,,2013-10-30 20:52:00,
2013-10-30 15:12:00,48.0,35.0,29.60,SSW,204,5.0,13.0,61,0.00,,,0.08,,2013-10-30 21:12:00,
2013-10-30 15:21:00,49.0,36.0,29.59,SW,235,7.0,13.0,60,0.00,,,0.08,,2013-10-30 21:21:00,
2013-10-30 15:43:00,49.0,35.0,29.59,WSW,243,10.0,14.0,58,0.00,,,0.06,,2013-10-30 21:43:00,
2013-10-30 15:53:00,48.0,35.0,29.59,WSW,248,8.0,13.0,60,0.00,,,0.06,,2013-10-30 21:53:00,
2013-10-30 16:13:00,48.0,35.0,29.59,SSW,207,5.0,11.0,61,0.00,,,0.06,,2013-10-30 22:13:00,
2013-10-30 16:23:00,48.0,34.0,29.59,WSW,247,8.0,12.0,59,0.00,,,0.06,,2013-10-30 22:23:00,
2013-10-30 16:43:00,48.0,34.0,29.59,SW,221,7.0,10.0,59,0.00,,,0.05,,2013-10-30 22:43:00,
2013-10-30 16:53:00,48.0,35.0,29.59,SW,234,8.0,12.0,60,0.00,,,0.05,,2013-10-30 22:53:00,
2013-10-30 17:12:00,47.0,34.0,29.58,SSW,209,6.0,11.0,60,0.00,,,0.05,,2013-10-30 23:12:00,
2013-10-30 17:23:00,47.0,34.0,29.58,SW,224,6.0,11.0,61,0.00,,,0.05,,2013-10-30 23:23:00,
2013-10-30 17:42:00,46.0,34.0,29.58,SW,221,3.0,9.0,63,0.00,,,0.05,,2013-10-30 23:42:00,
2013-10-30 17:53:00,45.0,34.0,29.58,SW,215,5.0,7.0,65,0.00,,,0.05,,2013-10-30 23:53:00,
2013-10-30 18:11:00,43.0,33.0,29.58,SSW,213,3.0,7.0,68,0.00,,,0.05,,2013-10-31 00:11:00,
2013-10-30 18:22:00,42.0,33.0,29.58,SSW,213,0.0,1.0,71,0.00,,,0.05,,2013-10-31 00:22:00,
2013-10-30 18:42:00,40.0,33.0,29.59,West,267,6.0,8.0,76,0.00,,,0.04,,2013-10-31 00:42:00,
2013-10-30 18:52:00,40.0,32.0,29.59,West,274,3.0,7.0,74,0.00,,,0.04,,2013-10-31 00:52:00,
2013-10-30 19:12:00,39.0,32.0,29.59,West,274,4.0,6.0,75,0.00,,,0.04,,2013-10-31 01:12:00,
2013-10-30 19:22:00,38.0,31.0,29.59,West,275,5.0,8.0,77,0.00,,,0.04,,2013-10-31 01:22:00,
2013-10-30 19:42:00,37.0,31.0,29.59,West,267,5.0,8.0,79,0.00,,,0.04,,2013-10-31 01:42:00,
2013-10-30 19:52:00,37.0,32.0,29.59,West,270,5.0,8.0,81,0.00,,,0.04,,2013-10-31 01:52:00,
2013-10-30 20:12:00,36.0,31.0,29.59,West,273,5.0,7.0,81,0.00,,,0.04,,2013-10-31 02:12:00,
2013-10-30 20:22:00,36.0,31.0,29.59,West,272,4.0,7.0,82,0.00,,,0.04,,2013-10-31 02:22:00,
2013-10-30 21:11:00,35.0,31.0,29.58,West,273,0.0,0.0,84,0.00,,,0.04,,2013-10-31 03:11:00,
2013-10-30 21:22:00,35.0,30.0,29.58,West,266,2.0,7.0,83,0.00,,,0.04,,2013-10-31 03:22:00,
2013-10-30 21:44:00,34.0,29.0,29.58,West,266,0.0,4.0,83,0.00,,,0.04,,2013-10-31 03:44:00,
2013-10-30 21:55:00,34.0,30.0,29.58,West,266,0.0,6.0,86,0.00,,,0.04,,2013-10-31 03:55:00,
2013-10-30 22:14:00,34.0,30.0,29.58,West,266,0.0,0.0,85,0.00,,,0.04,,2013-10-31 04:14:00,
2013-10-30 22:24:00,34.0,30.0,29.57,West,266,0.0,1.0,85,0.00,,,0.04,,2013-10-31 04:24:00,
2013-10-30 22:43:00,33.0,29.0,29.57,West,266,0.0,0.0,84,0.00,,,0.04,,2013-10-31 04:43:00,
2013-10-30 22:54:00,32.0,28.0,29.57,West,266,0.0,0.0,85,0.00,,,0.04,,2013-10-31 04:54:00,
2013-10-30 23:13:00,32.0,28.0,29.57,West,261,0.0,4.0,86,0.00,,,0.04,,2013-10-31 05:13:00,
2013-10-30 23:23:00,30.0,27.0,29.57,West,261,0.0,0.0,87,0.00,,,0.04,,2013-10-31 05:23:00,
2013-10-30 23:43:00,30.0,27.0,29.57,West,261,0.0,0.0,88,0.00,,,0.04,,2013-10-31 05:43:00,
2013-10-30 23:52:00,30.0,27.0,29.56,West,261,0.0,0.0,89,0.00,,,0.04,,2013-10-31 05:52:00,